Regional Weather Roundup
Issued by NWS

Home | Current Version | Previous Version | Text Only | Print | Product List | Glossary Off
Versions: 1 2 3 4 5 6 7 8 9 10 11 12 13 14 15 16 17 18 19 20 21 22 23 24 25 26 27 28 29 30 31 32 33 34 35 36 37 38 39 40 41 42 43 44 45 46 47 48 49 50

000
ASUS43 KFSD 301402
RWRSD

WEATHER ROUNDUP FOR SOUTH DAKOTA
NATIONAL WEATHER SERVICE SIOUX FALLS SD
900 AM CDT FRI SEP 30 2016

NOTE: "FAIR" INDICATES FEW OR NO CLOUDS BELOW 12,000 FEET WITH NO
SIGNIFICANT WEATHER AND/OR OBSTRUCTIONS TO VISIBILITY.


SDZ001>005-009-010-012>017-301500-
NORTHWEST AND NORTH CENTRAL SOUTH DAKOTA

CITY           SKY/WX    TMP DP  RH WIND       PRES   REMARKS
BUFFALO          N/A     57  43  59 SE12      30.00F
FAITH            N/A     53  43  68 SE22G28   30.09F
MOBRIDGE       PTSUNNY   58  46  64 SE22G31   30.15F
$$

SDZ012>016-024>037-041>051-057-063-072>074-301500-
SOUTHWEST AND SOUTH CENTRAL SOUTH DAKOTA

CITY           SKY/WX    TMP DP  RH WIND       PRES   REMARKS
RAPID CTY ARPT MOSUNNY   54  43  66 SE8       30.09S
PIERRE         CLOUDY    54  45  71 SE10      30.20S
CUSTER         CLOUDY    58  43  57 NW3       30.19F
ELLSWORTH AFB  CLOUDY    56  44  62 S10       30.06F
PHILIP         MOSUNNY   54  45  71 SE10      30.14F
PINE RIDGE     CLOUDY    54  42  64 S12G22    30.15S
WINNER         FAIR      54  46  74 S15       30.24S
$$

SDZ004>011-016>023-039-040-301500-
NORTHEAST SOUTH DAKOTA

CITY           SKY/WX    TMP DP  RH WIND       PRES   REMARKS
ABERDEEN       MOSUNNY   53  47  79 S12       30.30R
WATERTOWN      SUNNY     53  48  83 SE7       30.33R
SISSETON         N/A     47  46  97 S7        30.34R
$$

SDZ017-020-022-023-036>040-048>070-301500-
SOUTHEAST SOUTH DAKOTA

CITY           SKY/WX    TMP DP  RH WIND       PRES   REMARKS
SIOUX FALLS    MOSUNNY   52  47  83 CALM      30.34S
HURON          CLOUDY    50  46  86 S9G17     30.30R
CHAMBERLAIN    MOSUNNY   52  49  90 SE6       30.26S
MITCHELL       SUNNY     50  46  86 E5        30.31S
YANKTON        SUNNY     48  46  93 E6        30.31S
$$

ABBREVIATIONS USED IN REMARKS
   TC - TEMPERATURE IN CELSIUS
  WCI - WIND CHILL INDEX
   HX - HEAT INDEX
  VSB - VISIBILITY





USA.gov is the U.S. government's official web portal to all federal, state and local government web resources and services.